Location: Bretagne
(43.8474°N, 0.4650°W)
Time: 19:16:33
(UTC+00:00)

ISS - Pass Details

Date: 15 January 2026
Orbit: 413 x 428 km, 51.6° (Epoch: 13 February)

Event Time Altitude Azimuth Distance (km) Brightness Sun altitude
Rises 19:01:26 0° 266° (W) 2,359 1.5 -23.2°
Reaches altitude 10° 19:03:40 10° 277° (W) 1,500 0.1 -23.6°
Enters shadow 19:05:59 28° 315° (NW) 822 -2.0 -24.0°
